Weather History for KLUF - April, 2013

Change the Weather History Date:

Saturday, April 27, 2013

  Actual Average Record
Temperature  
Mean Temperature 77 °F -  
Max Temperature 95 °F 89 °F 104 °F (1992)
Min Temperature 59 °F 52 °F 39 °F (1971)
Cooling Degree Days 12    
Growing Degree Days 27 (Base 50)    
Moisture  
Dew Point 27 °F    
Average Humidity 17    
Maximum Humidity 41    
Minimum Humidity 6    
Precipitation  
Precipitation 0.00 in - - ()
Sea Level Pressure  
Sea Level Pressure 29.91 in    
Wind  
Wind Speed 4 mph (SSE)    
Max Wind Speed 12 mph    
Max Gust Speed -    
Visibility 10 miles    
Events      
Averages and records for this station are not official NWS values.
T = Trace of Precipitation, MM = Missing Value Source: NWS Daily Summary

Daily Weather History Graph

Daily Weather History Graph

Search for Another Location

Airport or City:

Trip Planner

Search our weather history database for the weather conditions in past years. The results will help you decide how hot, cold, wet, or windy it might be!

Date:

Astronomy

Apr. 27, 2013 Rise Set
Actual Time 5:44 AM MST 7:09 PM MST
Civil Twilight 5:18 AM MST 7:36 PM MST
Nautical Twilight 4:47 AM MST 8:07 PM MST
Astronomical Twilight 4:14 AM MST 8:40 PM MST
Moon 9:37 PM MST (4/27) 7:11 AM MST (4/27)
Length of Visible Light 14h 17m
Length of Day
13h 24m
Waning Gibbous, 95% of the Moon is Illuminated
Apr 27
Waning Gibbous
May 2
Last Quarter
May 9
New
May 17
First Quarter
May 24
Full

Hourly Weather History & Observations

Time (MST) Temp. Dew Point Humidity Pressure Visibility Wind Dir Wind Speed Gust Speed Precip Events Conditions
12:58 AM 71.4 °F 33.4 °F 25% 29.98 in 10.0 mi WSW 2.3 mph - N/A   Clear
1:58 AM 69.6 °F 30.9 °F 24% 29.97 in 10.0 mi Calm Calm - N/A   Clear
2:58 AM 68.4 °F 32.5 °F 27% 29.97 in 10.0 mi East 2.3 mph - N/A   Clear
3:58 AM 67.3 °F 32.2 °F 27% 29.97 in 10.0 mi NE 1.2 mph - N/A   Clear
4:58 AM 63.7 °F 31.1 °F 29% 29.97 in 10.0 mi NE 2.3 mph - N/A   Clear
5:58 AM 59.2 °F 35.4 °F 41% 29.99 in 10.0 mi NE 6.9 mph - N/A   Clear
6:58 AM 65.5 °F 31.1 °F 28% 30.00 in 10.0 mi NE 4.6 mph - N/A   Clear
7:58 AM 72.7 °F 32.5 °F 23% 30.01 in 10.0 mi NE 4.6 mph - N/A   Clear
8:58 AM 75.2 °F 35.6 °F 24% 30.01 in 10.0 mi ENE 2.3 mph - N/A   Clear
9:58 AM 81.3 °F 33.6 °F 18% 30.00 in 10.0 mi Variable 2.3 mph - N/A   Clear
10:58 AM 84.9 °F 30.0 °F 14% 29.99 in 10.0 mi South 3.5 mph - N/A   Clear
11:58 AM 88.3 °F 25.7 °F 10% 29.97 in 10.0 mi Variable 2.3 mph - N/A   Clear
12:58 PM 91.4 °F 22.8 °F 8% 29.94 in 10.0 mi Variable 3.5 mph - N/A   Clear
1:58 PM 94.3 °F 18.1 °F 6% 29.91 in 10.0 mi North 5.8 mph - N/A   Clear
2:58 PM 95.4 °F 19.0 °F 6% 29.87 in 10.0 mi Variable 2.3 mph - N/A   Clear
3:58 PM 94.8 °F 19.4 °F 6% 29.83 in 10.0 mi SSW 9.2 mph - N/A   Clear
4:58 PM 95.2 °F 22.5 °F 7% 29.83 in 10.0 mi SW 10.4 mph - N/A   Clear
5:58 PM 94.5 °F 19.8 °F 7% 29.82 in 10.0 mi SSW 11.5 mph - N/A   Clear
6:58 PM 92.1 °F 20.1 °F 7% 29.81 in 10.0 mi South 8.1 mph - N/A   Clear
7:58 PM 85.5 °F 25.9 °F 11% 29.82 in 10.0 mi SSW 5.8 mph - N/A   Clear
8:58 PM 82.2 °F 27.1 °F 13% 29.83 in 10.0 mi WSW 8.1 mph - N/A   Clear
9:58 PM 80.6 °F 28.0 °F 15% 29.83 in 10.0 mi WSW 6.9 mph - N/A   Clear
10:58 PM 77.7 °F 23.5 °F 13% 29.82 in 10.0 mi SSW 6.9 mph - N/A   Clear
11:58 PM 74.7 °F 25.5 °F 16% 29.82 in 10.0 mi NE 6.9 mph - N/A   Clear